Weather in Domozhirovo

Russia / Saint-Petersburg and Leningrad Oblast     60°28′10″N   33°05′18″E
temp.,
°C
wind,
m/s
gust,
m/s
humid.,
%
clouds,
%
prec.,
mm/h
press.,
hPa
HPBL,
m
22 april, thu
thu2200:00+1sw3693100 0.1 1003596
03:00+1sw3598100 0.5 1004223
06:00+1ssw3598100 0.3 1004244
09:00+2s2599100 0.4 1005257
12:00+5s358799 0.0 1006388
15:00+9s267315 0.1 1006801
18:00+10ssw236420 0.0 1007147
21:00+7se328095 0.1 100730
23 april, fri
fri2300:00+5se4108583 0.0 1005165
03:00+6sse4986100 0.2 1005298
06:00+5s3895100 0.2 1005268
09:00+6se3790100 2.3 1005354
12:00+7sse4676100 0.1 1006739
15:00+8s4769100 1.4 1007942
18:00+7sw257169 1.2 1008738
21:00+4s38782 1.3 1008153
24 april, sat
sat2400:00+2sse368530 0.0 1009100
03:00+1se2688100 0.0 1008112
06:00+1sse2490100 0.0 100889
09:00+4sw1279100 0.0 1007325
12:00+5wnw2172100 0.0 1007708
15:00+4wnw3375100 0.0 1006342
18:00+3nw3474100 0.0 1006246
21:00+2w2382100 0.0 100664
25 april, sun
sun2500:00+1wnw1183100 0.0 100510
03:000sw118786 0.0 100510
06:000s11875 0.0 100412
09:00+4sw016898 0.0 1004429
12:00+6nnw2262100 0.1 1005954
15:00+5w2172100 1.4 1006640
18:00+4wnw1173100 0.6 1007319
21:00+2w1183100 0.6 100714
26 april, mon
mon2600:00+1sw1184100 0.0 100711
03:00+1ssw2289100 0.0 100715
06:00+1ssw2392100 0.0 100774
09:00+4wsw4680100 0.0 1007376
12:00+4wsw4576100 0.0 1008536
15:00+5w3668100 0.0 1008696
18:00+4wnw3782100 0.0 1008519
21:00+2wsw4988100 0.0 1008524